EST,Max TemperatureF,Mean TemperatureF,Min TemperatureF,Max Dew PointF,MeanDew PointF,Min DewpointF,Max Humidity, Mean Humidity, Min Humidity, Max Sea Level PressureIn, Mean Sea Level PressureIn, Min Sea Level PressureIn, Max VisibilityMiles, Mean VisibilityMiles, Min VisibilityMiles, Max Wind SpeedMPH, Mean Wind SpeedMPH, Max Gust SpeedMPH,PrecipitationIn, CloudCover, Events, WindDirDegrees
2013-11-1,55,48,41,54,44,36,100,87,76,29.69,29.29,28.94,10,8,1,26,10,39,0.50,8,Rain,298
2013-11-2,41,36,30,36,30,26,92,77,62,30.17,29.94,29.69,10,10,10,12,6,,0.00,8,,10
2013-11-3,45,35,26,29,26,23,92,72,51,30.43,30.34,30.19,10,10,10,10,3,,0.00,4,,124
2013-11-4,50,42,33,30,27,23,82,59,38,30.43,30.32,30.18,10,10,10,17,11,26,0.00,3,,151
2013-11-5,55,50,45,46,41,30,97,74,56,30.27,30.18,30.02,10,10,5,12,5,17,0.05,6,Rain,193
2013-11-6,54,46,37,51,43,30,96,87,73,29.99,29.79,29.65,10,7,2,24,10,30,0.72,8,Rain,235
2013-11-7,39,36,33,32,30,27,93,78,65,30.07,30.02,29.97,10,8,1,16,9,24,0.07,8,Snow,289
2013-11-8,39,36,33,28,26,23,81,68,55,30.21,30.14,30.07,10,10,10,15,8,18,0.00,7,,278
2013-11-9,44,38,33,43,35,28,97,87,67,30.08,29.74,29.61,10,6,1,23,9,32,0.50,8,Rain-Snow,190
2013-11-10,42,38,33,34,31,25,87,73,55,30.18,30.00,29.75,10,10,6,28,17,39,0.02,7,Rain,293
2013-11-11,41,34,26,34,24,15,93,75,54,30.39,30.09,29.93,10,7,1,24,15,37,0.22,8,Rain-Snow,312
2013-11-12,28,21,10,22,16,8,88,69,53,30.55,30.48,30.41,10,8,1,23,12,31,0.01,7,Snow,317
2013-11-13,43,26,10,29,21,8,88,67,49,30.44,30.13,29.86,10,10,10,28,7,46,0.00,1,,223
2013-11-14,45,42,39,35,31,28,79,64,56,29.89,29.85,29.81,10,10,10,18,12,34,0.01,4,Rain,226
2013-11-15,51,40,28,37,35,27,96,75,56,29.96,29.89,29.85,10,10,6,13,5,21,0.00,3,,206
2013-11-16,54,41,28,50,40,27,92,83,66,29.97,29.79,29.54,10,9,6,17,7,28,0.15,5,Rain,153
2013-11-17,60,52,44,57,52,41,100,92,82,29.54,29.23,28.98,10,6,1,29,11,45,2.47,8,Rain-Thunderstorm,174
2013-11-18,44,37,30,40,25,19,85,68,57,30.12,29.70,29.23,10,8,2,31,23,46,0.04,8,Rain-Snow,292
2013-11-19,34,30,25,22,20,18,85,68,59,30.39,30.30,30.12,10,10,10,21,12,29,0.00,5,,316
2013-11-20,43,32,21,29,24,18,88,70,47,30.38,30.32,30.23,10,10,10,12,5,20,0.00,0,,141
2013-11-21,41,38,34,38,34,28,96,83,70,30.23,30.19,30.16,10,8,2,7,3,,0.02,8,Rain,150
2013-11-22,39,31,23,37,28,19,93,85,69,30.36,30.25,30.16,10,6,1,21,10,30,0.04,7,Rain-Snow,318
2013-11-23,30,22,15,23,10,2,86,70,53,30.52,30.40,30.20,10,4,1,29,19,38,0.03,8,Snow,327
2013-11-24,23,18,14,18,11,7,93,80,65,30.56,30.46,30.17,10,4,0,13,6,22,0.15,8,Fog-Snow,261
2013-11-25,37,30,24,29,25,15,86,79,64,30.13,29.88,29.81,10,5,0,23,15,34,0.02,8,Fog-Snow,230
2013-11-26,37,29,19,30,23,11,89,79,65,30.07,29.96,29.88,10,6,1,20,8,24,0.09,8,Snow,331
2013-11-27,21,14,1,14,9,-1,88,71,59,30.22,30.10,29.98,10,10,9,23,13,31,0.00,4,,346
2013-11-28,21,10,0,16,6,-5,92,84,78,30.50,30.32,30.23,10,8,2,10,2,,0.00,5,Snow,112
2013-11-29,28,10,-8,19,4,-13,92,77,58,30.66,30.58,30.50,10,8,0,8,1,,0.00,4,Fog,144
2013-11-30,36,30,25,31,25,17,92,79,69,30.47,30.16,30.02,10,7,3,12,7,,0.00,8,Rain,157